Radiation Dose at Monitoring Post of Fukushima Daini Nuclear Power Station
Date,Time,MP-1(microSv/h),MP-2(microSv/h),MP-3(microSv/h),MP-4(microSv/h),MP-5(microSv/h),MP-6(microSv/h),MP-7(microSv/h),Wind Direction,Wind Velocity(m/s),Rain
2014/10/28,00:00,0.615,0.427,0.650,0.590,0.588,0.271,0.236,north,6.1,No
2014/10/28,00:10,0.615,0.427,0.652,0.588,0.587,0.271,0.235,north,3.6,No
2014/10/28,00:20,0.616,0.427,0.651,0.589,0.588,0.270,0.235,north-northwest,4.8,No
2014/10/28,00:30,0.616,0.427,0.651,0.588,0.588,0.271,0.236,north,5.6,No
2014/10/28,00:40,0.614,0.428,0.651,0.589,0.587,0.271,0.236,north,6.2,No
2014/10/28,00:50,0.615,0.426,0.652,0.588,0.588,0.271,0.235,north,4.7,No
2014/10/28,01:00,0.615,0.427,0.651,0.589,0.589,0.270,0.235,north,4.5,No
2014/10/28,01:10,0.615,0.427,0.650,0.588,0.587,0.270,0.236,north,4.8,No
2014/10/28,01:20,0.616,0.427,0.652,0.589,0.587,0.269,0.236,north,4.7,No
2014/10/28,01:30,0.615,0.428,0.651,0.587,0.589,0.270,0.235,north,4.7,No
2014/10/28,01:40,0.615,0.427,0.650,0.588,0.588,0.270,0.235,north,4.0,No
2014/10/28,01:50,0.615,0.427,0.651,0.590,0.587,0.271,0.236,north,4.2,No
2014/10/28,02:00,0.615,0.426,0.651,0.588,0.588,0.270,0.236,north,3.6,No
2014/10/28,02:10,0.616,0.428,0.650,0.589,0.588,0.270,0.236,north-northeast,2.3,No
2014/10/28,02:20,0.614,0.427,0.651,0.590,0.588,0.270,0.235,north-northwest,2.3,No
2014/10/28,02:30,0.615,0.427,0.650,0.588,0.589,0.271,0.235,north-northwest,3.4,No
2014/10/28,02:40,0.615,0.428,0.651,0.589,0.589,0.270,0.235,north-northwest,5.0,No
2014/10/28,02:50,0.618,0.427,0.651,0.589,0.588,0.271,0.236,northwest,2.6,No
2014/10/28,03:00,0.614,0.428,0.651,0.588,0.590,0.270,0.236,northwest,4.4,No
2014/10/28,03:10,0.615,0.428,0.650,0.588,0.589,0.270,0.235,northwest,4.1,No
2014/10/28,03:20,0.615,0.426,0.650,0.589,0.588,0.270,0.237,north-northwest,6.7,No
2014/10/28,03:30,0.616,0.427,0.651,0.589,0.590,0.270,0.236,north-northwest,4.9,No
2014/10/28,03:40,0.615,0.427,0.653,0.590,0.589,0.272,0.236,north,5.4,No
2014/10/28,03:50,0.618,0.427,0.651,0.590,0.587,0.271,0.236,north-northwest,4.7,No
2014/10/28,04:00,0.616,0.428,0.653,0.589,0.589,0.271,0.236,north,4.8,No
2014/10/28,04:10,0.614,0.426,0.650,0.590,0.589,0.271,0.235,north-northwest,5.0,No
2014/10/28,04:20,0.617,0.428,0.652,0.589,0.588,0.271,0.236,north,4.2,No
2014/10/28,04:30,0.615,0.428,0.652,0.590,0.588,0.270,0.236,northwest,3.1,No
2014/10/28,04:40,0.616,0.429,0.652,0.590,0.588,0.271,0.236,north-northwest,5.6,No
2014/10/28,04:50,0.616,0.430,0.651,0.590,0.589,0.271,0.236,north,3.9,No
2014/10/28,05:00,0.616,0.427,0.653,0.589,0.590,0.270,0.235,north-northwest,3.7,No
2014/10/28,05:10,0.617,0.428,0.652,0.588,0.590,0.271,0.236,west-northwest,0.8,No
2014/10/28,05:20,0.618,0.428,0.650,0.589,0.587,0.269,0.236,west,1.4,No
2014/10/28,05:30,0.616,0.427,0.651,0.589,0.589,0.270,0.235,west-northwest,1.2,No
2014/10/28,05:40,0.617,0.427,0.652,0.591,0.588,0.270,0.238,west-southwest,1.3,No
2014/10/28,05:50,0.615,0.427,0.652,0.590,0.588,0.270,0.236,west,1.4,No
2014/10/28,06:00,0.617,0.427,0.652,0.590,0.588,0.270,0.236,northwest,2.3,No
2014/10/28,06:10,0.617,0.428,0.651,0.590,0.587,0.270,0.235,northwest,1.1,No
2014/10/28,06:20,0.617,0.428,0.653,0.589,0.588,0.271,0.236,west-northwest,2.3,No
2014/10/28,06:30,0.619,0.427,0.650,0.591,0.588,0.269,0.235,west-northwest,2.8,No
2014/10/28,06:40,0.616,0.428,0.652,0.589,0.590,0.269,0.236,west-northwest,4.9,No
2014/10/28,06:50,0.616,0.426,0.651,0.591,0.589,0.272,0.236,northwest,3.6,No
2014/10/28,07:00,0.617,0.426,0.651,0.589,0.590,0.271,0.235,northwest,2.9,No
2014/10/28,07:10,0.616,0.427,0.652,0.590,0.592,0.271,0.237,north,4.2,No
2014/10/28,07:20,0.616,0.428,0.652,0.591,0.591,0.271,0.236,northwest,6.6,No
2014/10/28,07:30,0.617,0.428,0.652,0.589,0.589,0.271,0.235,west-northwest,1.7,No
2014/10/28,07:40,0.617,0.428,0.652,0.588,0.588,0.270,0.235,north-northwest,1.7,No
2014/10/28,07:50,0.619,0.429,0.653,0.589,0.590,0.270,0.235,northwest,3.9,No
2014/10/28,08:00,0.617,0.428,0.651,0.590,0.589,0.270,0.236,northwest,4.1,No
2014/10/28,08:10,0.616,0.429,0.652,0.589,0.590,0.271,0.235,west-northwest,2.3,No
2014/10/28,08:20,0.617,0.429,0.652,0.591,0.590,0.270,0.237,west-northwest,5.1,No
2014/10/28,08:30,0.619,0.428,0.654,0.592,0.588,0.271,0.235,west-northwest,6.4,No
2014/10/28,08:40,0.618,0.429,0.653,0.591,0.590,0.271,0.238,west,2.8,No
2014/10/28,08:50,0.616,0.428,0.655,0.590,0.591,0.271,0.236,west-southwest,2.5,No
2014/10/28,09:00,0.617,0.429,0.653,0.592,0.591,0.272,0.236,northwest,3.6,No
2014/10/28,09:10,0.617,0.430,0.653,0.590,0.589,0.271,0.235,west-southwest,1.6,No
2014/10/28,09:20,0.618,0.428,0.654,0.591,0.590,0.272,0.237,west-northwest,3.7,No
2014/10/28,09:30,0.619,0.429,0.653,0.592,0.589,0.271,0.236,west-northwest,5.5,No
2014/10/28,09:40,0.620,0.429,0.653,0.591,0.593,0.271,0.237,west,4.1,No
2014/10/28,09:50,0.617,0.429,0.652,0.592,0.588,0.272,0.237,west-northwest,4.2,No
2014/10/28,10:00,0.618,0.428,0.654,0.591,0.591,0.271,0.238,west,6.9,No
2014/10/28,10:10,0.618,0.429,0.654,0.594,0.592,0.272,0.237,west,8.1,No
2014/10/28,10:20,0.618,0.428,0.656,0.595,0.592,0.272,0.237,west,9.5,No
2014/10/28,10:30,0.614,0.430,0.655,0.593,0.590,0.271,0.238,west,7.8,Yes
2014/10/28,10:40,0.618,0.430,0.656,0.594,0.590,0.272,0.237,west,7.8,Yes
2014/10/28,10:50,0.616,0.431,0.656,0.596,0.593,0.272,0.238,west-southwest,8.1,No
2014/10/28,11:00,0.618,0.431,0.655,0.594,0.595,0.273,0.237,west-southwest,8.5,No
2014/10/28,11:10,0.618,0.433,0.654,0.597,0.593,0.270,0.238,west-southwest,7.4,Yes
2014/10/28,11:20,0.621,0.430,0.655,0.597,0.592,0.272,0.237,west-southwest,8.0,No
2014/10/28,11:30,0.620,0.430,0.654,0.596,0.592,0.272,0.237,west-southwest,8.9,Yes
2014/10/28,11:40,0.622,0.431,0.655,0.598,0.591,0.274,0.239,west,7.5,Yes
2014/10/28,11:50,0.623,0.429,0.655,0.596,0.592,0.273,0.238,west,8.1,No
2014/10/28,12:00,0.622,0.431,0.657,0.600,0.592,0.272,0.238,west,9.4,No
2014/10/28,12:10,0.621,0.432,0.655,0.599,0.593,0.272,0.239,west,10.9,No
2014/10/28,12:20,0.621,0.431,0.657,0.599,0.594,0.273,0.237,west-southwest,10.7,No
2014/10/28,12:30,0.621,0.433,0.656,0.600,0.592,0.272,0.237,west,6.3,No
2014/10/28,12:40,0.621,0.433,0.658,0.601,0.593,0.272,0.237,west-northwest,7.8,No
2014/10/28,12:50,0.619,0.432,0.658,0.601,0.594,0.271,0.238,west-northwest,8.6,No
2014/10/28,13:00,0.618,0.432,0.658,0.604,0.592,0.274,0.239,west-northwest,6.5,No
2014/10/28,13:10,0.618,0.432,0.660,0.605,0.595,0.271,0.236,west,7.8,No
2014/10/28,13:20,0.619,0.434,0.659,0.604,0.597,0.273,0.236,west,7.9,No
2014/10/28,13:30,0.617,0.434,0.661,0.606,0.594,0.272,0.237,west,6.7,No
2014/10/28,13:40,0.618,0.433,0.659,0.606,0.582,0.272,0.238,west,5.8,No
2014/10/28,13:50,0.619,0.433,0.659,0.603,0.595,0.272,0.238,west,5.6,No
2014/10/28,14:00,0.619,0.434,0.661,0.600,0.595,0.272,0.238,west-northwest,2.9,No
2014/10/28,14:10,0.605,0.435,0.660,0.605,0.593,0.271,0.237,west,6.9,No
2014/10/28,14:20,0.619,0.433,0.659,0.605,0.586,0.270,0.238,west-northwest,6.5,No
2014/10/28,14:30,0.618,0.434,0.657,0.606,0.572,0.271,0.237,west,6.4,No
2014/10/28,14:40,0.619,0.432,0.658,0.606,0.573,0.271,0.239,west,5.2,No
2014/10/28,14:50,0.619,0.432,0.656,0.605,0.573,0.271,0.238,west-northwest,6.6,No
2014/10/28,15:00,0.619,0.432,0.655,0.601,0.588,0.271,0.239,west,6.8,No
2014/10/28,15:10,0.620,0.431,0.654,0.600,0.592,0.270,0.238,west-northwest,6.4,No
2014/10/28,15:20,0.618,0.431,0.654,0.600,0.589,0.273,0.237,west-northwest,4.4,No
2014/10/28,15:30,0.620,0.430,0.654,0.599,0.588,0.271,0.238,west-southwest,2.6,No
2014/10/28,15:40,0.618,0.431,0.657,0.597,0.590,0.272,0.238,west-northwest,6.2,No
2014/10/28,15:50,0.620,0.428,0.654,0.595,0.590,0.273,0.238,northwest,3.9,No
2014/10/28,16:00,0.619,0.429,0.654,0.593,0.590,0.272,0.238,northwest,3.6,No
2014/10/28,16:10,0.618,0.428,0.654,0.592,0.589,0.272,0.239,west-northwest,4.4,No
2014/10/28,16:20,0.620,0.429,0.653,0.593,0.588,0.272,0.238,northwest,1.9,No
2014/10/28,16:30,0.619,0.429,0.654,0.590,0.589,0.272,0.239,north-northwest,1.8,No
2014/10/28,16:40,0.618,0.429,0.654,0.591,0.589,0.273,0.238,northwest,2.0,No
2014/10/28,16:50,0.621,0.428,0.655,0.590,0.591,0.272,0.238,west-northwest,3.3,No
2014/10/28,17:00,0.620,0.428,0.655,0.593,0.589,0.273,0.238,northwest,2.8,No
2014/10/28,17:10,0.618,0.429,0.654,0.592,0.591,0.272,0.238,north-northwest,1.7,No
2014/10/28,17:20,0.617,0.428,0.653,0.592,0.591,0.272,0.238,northwest,2.7,No
2014/10/28,17:30,0.620,0.429,0.656,0.591,0.589,0.273,0.238,northwest,2.8,No
2014/10/28,17:40,0.621,0.430,0.654,0.592,0.591,0.273,0.237,west,1.7,No
2014/10/28,17:50,0.619,0.430,0.655,0.593,0.591,0.272,0.239,west-northwest,3.4,No
2014/10/28,18:00,0.619,0.430,0.653,0.593,0.590,0.273,0.239,west-northwest,2.4,No
2014/10/28,18:10,0.620,0.429,0.653,0.592,0.590,0.272,0.238,west,2.1,No
2014/10/28,18:20,0.620,0.428,0.655,0.593,0.592,0.273,0.238,northwest,2.3,No
2014/10/28,18:30,0.619,0.429,0.654,0.593,0.590,0.271,0.238,northwest,1.6,No
2014/10/28,18:40,0.618,0.429,0.655,0.593,0.590,0.273,0.239,west-northwest,1.9,No
2014/10/28,18:50,0.620,0.431,0.655,0.593,0.591,0.273,0.241,west,3.7,No
2014/10/28,19:00,0.620,0.428,0.655,0.594,0.591,0.272,0.238,west-northwest,3.3,No
2014/10/28,19:10,0.619,0.431,0.655,0.593,0.591,0.272,0.238,west-northwest,3.2,No
2014/10/28,19:20,0.618,0.429,0.655,0.593,0.591,0.273,0.238,northwest,2.7,No
2014/10/28,19:30,0.619,0.430,0.655,0.593,0.590,0.272,0.238,west-northwest,3.3,No
2014/10/28,19:40,0.618,0.428,0.657,0.593,0.589,0.272,0.238,west-northwest,2.6,No
2014/10/28,19:50,0.620,0.429,0.655,0.592,0.589,0.271,0.239,north-northwest,1.8,No
2014/10/28,20:00,0.620,0.430,0.655,0.595,0.591,0.272,0.238,-,CALM,No
2014/10/28,20:10,0.621,0.430,0.654,0.593,0.590,0.273,0.238,north,1.0,No
2014/10/28,20:20,0.619,0.428,0.653,0.593,0.590,0.272,0.238,north-northwest,1.1,No
2014/10/28,20:30,0.619,0.429,0.654,0.592,0.589,0.272,0.239,-,CALM,No
2014/10/28,20:40,0.620,0.432,0.654,0.595,0.589,0.272,0.239,south,0.7,No
2014/10/28,20:50,0.620,0.429,0.655,0.592,0.590,0.272,0.239,northwest,1.0,No
2014/10/28,21:00,0.622,0.428,0.655,0.592,0.590,0.272,0.238,northwest,2.6,No
2014/10/28,21:10,0.620,0.429,0.656,0.594,0.590,0.274,0.240,west,1.1,No
2014/10/28,21:20,0.618,0.429,0.656,0.593,0.591,0.273,0.238,northwest,1.0,No
2014/10/28,21:30,0.620,0.429,0.656,0.594,0.590,0.272,0.239,west-northwest,2.5,No
2014/10/28,21:40,0.621,0.430,0.655,0.593,0.591,0.274,0.239,west,4.5,No
2014/10/28,21:50,0.618,0.429,0.656,0.594,0.590,0.271,0.239,west,3.7,No
2014/10/28,22:00,0.619,0.429,0.655,0.593,0.589,0.272,0.238,west,3.4,No
2014/10/28,22:10,0.619,0.429,0.656,0.594,0.590,0.272,0.239,west-southwest,2.8,No
2014/10/28,22:20,0.619,0.430,0.655,0.594,0.589,0.272,0.240,west-southwest,2.2,No
2014/10/28,22:30,0.619,0.430,0.657,0.593,0.591,0.272,0.240,west-southwest,1.5,No
2014/10/28,22:40,0.620,0.429,0.655,0.594,0.590,0.272,0.239,west-southwest,0.7,No
2014/10/28,22:50,0.619,0.430,0.655,0.593,0.590,0.272,0.239,southwest,1.0,No
2014/10/28,23:00,0.620,0.429,0.656,0.594,0.591,0.272,0.240,north-northwest,0.5,No
2014/10/28,23:10,0.621,0.429,0.656,0.594,0.591,0.273,0.240,west,3.1,No
2014/10/28,23:20,0.620,0.430,0.655,0.594,0.590,0.273,0.240,west-northwest,5.8,No
2014/10/28,23:30,0.619,0.430,0.655,0.593,0.590,0.273,0.239,west,4.7,No
2014/10/28,23:40,0.619,0.429,0.655,0.593,0.589,0.272,0.240,west-northwest,2.8,No
2014/10/28,23:50,0.620,0.430,0.656,0.594,0.590,0.273,0.240,west,5.9,No
